Wind_Speed
7 7 8 8 7 8 7 7 8 8 8 7 7 6 5 4 3 3 3 3 3 2 2 2 2 2 2 3 3 4 4 4 5 5 5 6 7 8 8 9 9 10 10
8 8 9 9 9 9 9 9 9 10 9 8 7 7 6 5 5 5 4 4 3 3 3 3 3 3 3 4 4 4 5 5 5 6 6 7 8 8 9 10 10 10 11
9 9 10 10 10 10 10 10 10 11 10 9 8 8 7 6 6 6 5 5 4 4 4 3 3 3 4 4 5 5 5 5 6 6 7 7 8 9 9 10 10 11 11
9 10 10 11 11 11 11 11 11 12 11 10 9 8 8 7 7 6 6 5 5 4 4 4 4 4 4 5 5 6 6 6 7 7 8 8 9 9 10 10 11 11 11
9 9 10 11 11 12 12 12 12 13 12 11 10 9 8 7 7 6 6 5 5 4 4 3 3 4 5 5 6 6 7 7 8 8 9 9 10 10 11 11 11 12 12
9 9 10 11 12 12 12 12 12 13 12 11 10 9 8 8 7 6 6 5 4 3 3 3 3 4 5 6 6 7 8 8 9 9 10 10 11 11 12 12 12 12 12
8 9 10 11 11 12 13 13 13 12 12 11 10 9 9 8 7 6 5 4 3 3 2 2 3 5 6 7 7 8 9 9 10 10 11 11 12 12 13 13 13 12 12
8 9 9 10 11 12 13 13 13 13 12 11 10 9 8 8 7 6 5 4 3 2 2 3 4 5 7 8 8 9 10 10 11 11 12 12 13 13 13 14 14 13 13
8 8 10 11 11 13 13 13 13 12 12 11 10 9 8 8 7 6 5 4 3 2 2 3 5 6 8 9 10 10 10 11 11 12 13 13 14 14 14 14 14 14 14
7 9 10 11 12 13 13 13 12 12 11 11 10 9 8 8 7 6 5 4 3 3 3 4 6 7 9 10 10 11 11 12 12 13 14 14 14 14 14 14 14 14 14
8 9 10 11 12 13 13 13 12 12 11 11 10 9 9 8 7 7 5 4 4 4 4 5 6 7 9 9 11 12 12 13 13 13 14 14 14 14 14 14 14 14 15
8 10 11 12 12 12 13 12 12 12 11 11 10 10 9 8 8 7 6 6 5 5 6 7 8 8 9 10 11 11 12 13 14 14 14 15 14 14 14 14 15 15 15
9 10 11 12 12 12 12 12 12 11 11 11 10 10 10 10 9 9 8 8 8 8 9 9 10 10 10 11 11 12 12 13 14 14 14 15 14 14 14 15 15 16 16
10 11 12 12 13 12 12 12 11 11 11 11 11 11 11 11 11 11 11 11 11 11 12 12 12 12 13 13 13 13 14 14 15 15 15 15 14 14 15 15 15 16 17
11 12 13 13 13 13 13 12 12 12 12 12 12 13 13 13 14 14 14 15 15 15 15 16 16 16 16 16 16 16 16 16 16 16 16 16 15 15 15 15 16 16 17
14 15 15 14 14 14 14 13 13 13 14 14 14 15 15 16 17 17 18 18 19 19 20 20 20 19 19 19 19 19 19 19 18 18 18 18 18 18 18 18 18 18 18
16 17 17 16 16 15 16 16 16 16 16 16 17 17 18 19 20 20 21 22 23 23 24 24 24 24 24 23 23 23 22 21 21 21 21 21 21 21 21 21 20 20 21
18 18 19 18 18 17 17 18 18 18 19 19 19 20 21 22 23 24 25 26 27 27 28 29 28 29 28 28 28 26 25 25 25 24 24 24 24 24 24 24 24 24 25
20 21 21 21 21 20 20 20 21 21 22 22 23 24 25 26 27 28 29 30 31 31 32 33 34 33 31 31 31 29 28 28 28 27 27 27 27 28 27 27 27 28 28
22 23 24 24 23 23 23 23 23 25 26 27 28 28 29 30 31 32 33 34 34 35 35 36 37 34 32 31 31 30 30 30 29 30 30 30 31 31 31 31 31 31 32
25 25 25 25 24 24 25 26 27 29 30 31 31 32 34 35 36 37 38 40 39 39 38 38 35 35 33 32 32 31 30 31 31 32 33 33 34 34 35 35 36 36 36
26 26 28 27 27 28 29 30 29 31 32 34 35 36 37 38 39 40 41 41 39 37 35 34 32 32 32 31 32 34 33 33 32 34 35 36 36 37 38 39 39 39 40
28 28 28 29 29 30 31 33 32 34 36 37 38 38 39 41 42 40 39 38 35 33 30 30 29 27 27 28 30 31 32 33 35 35 37 39 39 40 41 42 43 43 44
31 32 32 31 31 32 33 33 34 34 36 37 38 38 39 41 41 39 37 35 33 31 31 29 28 28 27 27 29 31 32 33 36 37 39 40 41 43 44 45 46 47 48
35 35 34 34 34 34 35 34 35 37 39 39 41 41 41 41 41 41 39 37 35 33 33 33 33 32 32 32 32 33 35 37 38 39 41 41 43 45 46 47 49 50 51
35 35 35 36 36 35 35 36 36 38 40 41 41 42 42 42 42 41 39 38 38 36 36 35 35 36 36 36 36 37 38 40 41 42 43 45 46 47 49 51 52 54 55
Wind_Direction
209 206 204 204 203 202 205 214 219 220 220 216 211 210 214 223 237 249 258 264 270 273 269 265 254 249 250 249 249 248 246 245 248 255 260 264 265 265 264 263 263 263 265
230 225 218 215 212 210 211 218 224 225 224 221 220 223 230 238 246 252 255 257 259 259 255 250 247 252 252 252 251 250 248 248 249 252 254 257 259 262 264 266 265 264 265
237 232 225 219 216 215 216 219 224 225 224 224 226 231 237 242 245 248 250 249 252 253 254 255 257 260 260 261 263 261 259 259 258 256 257 259 261 262 264 267 267 265 265
238 234 227 220 216 215 216 218 223 225 224 225 229 233 236 239 241 244 245 247 251 254 258 263 269 273 274 274 275 274 274 272 269 266 262 261 264 264 264 265 266 265 266
240 235 227 219 214 212 213 216 219 221 222 225 229 232 233 234 238 242 244 248 250 255 263 271 279 285 286 286 285 284 284 283 279 276 273 269 268 268 266 265 267 267 268
240 234 224 216 211 209 209 211 215 218 220 224 226 227 230 233 236 239 241 242 247 254 265 278 289 295 296 295 294 293 291 288 286 283 280 277 273 272 270 268 271 269 268
239 229 220 213 209 208 207 209 213 216 218 219 221 223 226 229 231 232 233 234 237 246 268 290 300 303 303 302 301 300 299 295 292 290 285 282 278 275 273 271 270 270 269
238 225 216 209 208 209 208 210 213 215 216 216 215 217 220 222 221 221 220 220 225 239 270 291 301 306 309 309 307 304 302 298 296 296 291 287 284 280 276 274 272 272 271
233 220 212 208 208 210 211 211 211 211 211 210 210 211 213 214 212 212 214 219 228 255 284 299 306 307 310 311 308 305 302 300 298 298 295 292 290 287 283 279 277 275 274
229 216 211 210 210 209 208 207 206 207 206 206 208 211 214 214 215 217 220 228 242 268 291 302 305 307 309 308 307 306 304 303 302 302 301 297 295 293 289 285 282 279 278
228 214 209 208 207 205 204 203 203 204 206 208 211 216 218 221 226 227 231 242 254 272 287 297 302 307 309 309 308 306 305 304 302 302 303 302 299 296 293 289 286 282 280
225 214 208 204 204 203 203 203 204 207 211 215 220 223 226 231 235 237 241 253 259 267 277 286 294 301 305 308 309 308 307 306 305 304 304 303 301 298 294 291 287 285 283
223 215 207 203 203 204 206 207 211 215 220 225 227 230 234 238 242 245 251 256 258 266 273 279 288 294 298 303 305 306 307 305 304 306 307 305 301 299 297 292 289 286 284
218 211 205 204 204 206 210 213 218 222 227 232 236 238 242 245 247 251 255 258 259 264 268 274 282 286 290 294 296 298 301 302 300 302 304 304 301 299 298 295 291 288 285
218 211 207 207 209 211 215 219 223 228 234 239 243 246 247 250 252 255 258 261 262 263 265 269 274 278 281 285 289 292 295 297 297 297 297 298 298 296 296 294 292 290 288
220 213 212 213 215 217 221 226 230 234 239 243 247 250 253 256 258 260 261 263 264 265 266 267 270 272 274 277 281 284 287 289 291 292 292 292 292 291 292 292 290 289 288
222 216 215 218 221 225 228 232 237 240 244 248 251 254 256 259 261 263 263 264 265 267 267 267 269 270 271 272 274 276 279 281 283 284 286 287 287 287 287 287 287 286 286
227 222 221 224 226 229 233 237 240 243 248 252 254 256 258 260 262 264 264 265 266 267 267 267 269 270 271 271 271 272 274 276 278 278 280 282 283 283 283 283 283 283 282
231 228 228 229 229 232 236 240 243 246 249 253 255 257 259 261 262 264 265 267 267 268 268 269 269 269 271 271 271 271 272 273 275 275 276 278 279 280 281 281 281 281 281
234 233 233 233 233 237 242 244 247 249 251 253 255 258 260 261 263 265 267 268 268 269 271 271 271 270 271 271 270 269 270 271 272 273 273 276 277 278 279 279 279 280 279
237 236 236 236 237 242 246 249 251 252 254 256 258 259 261 264 266 268 269 269 270 273 275 275 275 273 272 273 271 271 271 271 272 272 272 274 276 276 277 277 278 278 278
243 244 241 240 240 243 246 249 254 258 259 258 260 262 265 268 271 270 272 274 276 277 279 280 280 277 276 275 273 271 272 272 272 272 272 272 274 275 275 276 277 277 277
245 247 247 246 249 252 254 254 256 258 260 262 264 268 271 272 272 275 276 279 285 287 287 288 284 279 279 278 277 279 278 275 274 273 275 274 274 274 274 274 275 275 277
245 248 250 252 254 255 258 259 260 262 263 266 270 276 278 278 282 284 286 292 293 291 294 293 293 285 283 283 281 279 280 279 278 277 277 275 274 274 274 275 275 275 276
247 252 252 254 258 260 264 268 266 265 267 272 274 279 282 284 286 290 293 297 296 296 296 295 294 289 285 285 282 280 279 279 279 279 277 276 276 275 276 276 277 277 276
249 253 256 259 260 263 268 273 274 273 273 276 279 283 285 286 287 290 294 297 297 296 294 294 291 287 284 283 281 280 280 279 278 278 276 276 277 277 277 276 277 278 278
Height
5905 5905 5906 5906 5906 5907 5908 5908 5909 5910 5910 5910 5910 5909 5909 5909 5909 5909 5909 5909 5909 5909 5909 5908 5908 5908 5908 5908 5907 5907 5907 5907 5906 5906 5905 5905 5905 5905 5905 5904 5904 5904 5904
5903 5904 5904 5905 5905 5905 5906 5907 5907 5908 5908 5908 5908 5908 5908 5908 5908 5908 5908 5908 5908 5907 5907 5907 5907 5906 5906 5906 5905 5905 5905 5905 5905 5904 5904 5903 5903 5903 5903 5903 5903 5902 5902
5901 5901 5902 5902 5903 5903 5904 5905 5906 5906 5906 5906 5906 5906 5907 5906 5906 5906 5906 5906 5906 5906 5906 5906 5905 5905 5905 5904 5904 5903 5903 5903 5903 5902 5902 5902 5901 5901 5901 5901 5901 5900 5901
5898 5898 5899 5900 5901 5901 5902 5903 5904 5904 5904 5904 5905 5905 5905 5905 5905 5905 5905 5905 5905 5905 5905 5905 5904 5904 5903 5903 5902 5902 5901 5901 5901 5900 5900 5900 5899 5899 5899 5899 5898 5898 5898
5896 5896 5896 5897 5898 5899 5900 5901 5902 5902 5903 5903 5903 5903 5903 5903 5903 5904 5904 5904 5904 5904 5904 5904 5903 5903 5902 5902 5901 5900 5900 5899 5899 5899 5898 5898 5897 5897 5897 5897 5896 5896 5896
5894 5893 5894 5895 5896 5897 5898 5899 5900 5901 5901 5901 5901 5902 5902 5902 5902 5903 5903 5903 5903 5903 5903 5903 5902 5902 5901 5901 5900 5899 5899 5898 5898 5897 5896 5896 5895 5895 5895 5894 5894 5894 5894
5892 5891 5892 5892 5893 5895 5896 5897 5898 5899 5900 5900 5900 5900 5900 5901 5901 5902 5902 5902 5902 5902 5902 5902 5901 5901 5900 5899 5899 5898 5898 5897 5896 5896 5895 5894 5893 5893 5892 5892 5892 5892 5892
5890 5890 5890 5890 5892 5893 5894 5896 5897 5897 5898 5898 5899 5899 5899 5900 5901 5901 5901 5902 5902 5902 5901 5901 5900 5900 5899 5898 5897 5897 5896 5896 5895 5894 5893 5892 5891 5891 5890 5890 5890 5889 5889
5888 5888 5888 5889 5890 5891 5893 5894 5895 5896 5897 5897 5898 5898 5899 5899 5900 5900 5901 5901 5901 5901 5901 5900 5899 5898 5897 5897 5896 5895 5895 5894 5893 5892 5891 5890 5889 5889 5888 5888 5887 5887 5887
5887 5887 5888 5888 5889 5890 5891 5892 5893 5895 5895 5896 5896 5897 5898 5898 5898 5899 5899 5900 5900 5900 5899 5899 5898 5897 5896 5895 5894 5893 5893 5892 5891 5890 5889 5888 5887 5886 5886 5885 5885 5884 5884
5886 5886 5887 5887 5888 5889 5890 5891 5892 5893 5894 5895 5895 5896 5896 5897 5897 5898 5898 5898 5898 5898 5898 5898 5897 5896 5894 5893 5892 5891 5890 5890 5889 5888 5887 5886 5885 5884 5883 5882 5882 5881 5881
5885 5885 5886 5886 5887 5888 5889 5890 5891 5892 5893 5893 5894 5895 5895 5895 5896 5896 5896 5897 5897 5897 5896 5896 5895 5894 5893 5891 5890 5889 5888 5887 5886 5885 5884 5883 5882 5881 5880 5879 5879 5878 5878
5884 5884 5885 5886 5887 5888 5889 5889 5890 5891 5892 5892 5893 5893 5894 5894 5894 5894 5894 5895 5895 5894 5894 5894 5893 5892 5891 5890 5888 5887 5886 5884 5883 5882 5881 5880 5879 5878 5877 5876 5876 5875 5875
5883 5883 5884 5885 5886 5886 5887 5888 5889 5890 5890 5891 5891 5892 5892 5892 5892 5892 5892 5892 5892 5892 5892 5891 5890 5889 5888 5887 5886 5885 5883 5882 5881 5879 5878 5877 5876 5875 5874 5873 5872 5872 5871
5881 5882 5883 5883 5884 5885 5886 5887 5887 5888 5889 5889 5890 5890 5890 5890 5890 5890 5890 5890 5890 5889 5889 5888 5887 5887 5886 5884 5883 5882 5881 5879 5878 5876 5875 5874 5873 5872 5871 5870 5869 5868 5867
5880 5880 5881 5882 5883 5883 5884 5885 5886 5886 5887 5887 5887 5887 5887 5887 5887 5887 5887 5887 5886 5886 5885 5885 5884 5883 5882 5881 5880 5878 5877 5876 5874 5873 5871 5870 5869 5868 5867 5866 5865 5864 5863
5878 5878 5879 5880 5880 5881 5882 5883 5883 5884 5884 5884 5884 5885 5884 5884 5884 5884 5884 5883 5882 5881 5881 5880 5879 5878 5877 5876 5875 5873 5872 5871 5870 5869 5867 5866 5865 5863 5862 5861 5860 5859 5858
5876 5876 5877 5878 5878 5879 5879 5880 5881 5881 5881 5881 5881 5881 5881 5881 5880 5879 5879 5878 5877 5876 5875 5874 5873 5872 5871 5870 5869 5868 5867 5866 5864 5863 5862 5861 5860 5858 5857 5856 5855 5854 5853
5873 5874 5874 5875 5876 5876 5876 5877 5877 5878 5878 5878 5877 5877 5877 5876 5875 5874 5873 5872 5871 5869 5868 5867 5866 5865 5864 5863 5862 5861 5860 5859 5858 5857 5856 5855 5854 5852 5851 5850 5848 5847 5846
5870 5871 5871 5872 5872 5873 5873 5873 5874 5873 5873 5873 5872 5872 5871 5870 5869 5868 5866 5865 5863 5862 5861 5859 5858 5857 5856 5855 5854 5853 5853 5852 5851 5850 5849 5848 5847 5845 5844 5843 5841 5840 5839
5866 5867 5867 5868 5869 5869 5870 5869 5869 5868 5867 5867 5866 5865 5864 5864 5863 5861 5859 5858 5856 5854 5853 5851 5850 5849 5847 5847 5846 5845 5845 5844 5844 5843 5842 5841 5839 5838 5836 5835 5833 5832 5830
5861 5862 5862 5863 5864 5864 5864 5864 5863 5862 5861 5860 5860 5859 5858 5857 5855 5853 5851 5850 5848 5846 5844 5843 5842 5840 5840 5839 5838 5837 5836 5836 5835 5834 5833 5832 5831 5829 5828 5826 5824 5823 5821
5857 5858 5858 5858 5859 5859 5858 5858 5857 5856 5855 5854 5853 5851 5850 5849 5847 5845 5843 5841 5840 5839 5838 5836 5834 5833 5832 5831 5831 5830 5829 5828 5826 5825 5824 5823 5821 5819 5818 5816 5815 5812 5810
5851 5852 5852 5853 5853 5853 5852 5852 5851 5850 5848 5847 5845 5843 5841 5840 5838 5836 5835 5834 5833 5832 5831 5829 5827 5827 5825 5824 5822 5821 5820 5819 5817 5816 5815 5813 5811 5809 5808 5806 5803 5801 5799
5845 5846 5846 5847 5847 5846 5845 5844 5844 5843 5841 5839 5837 5835 5834 5833 5830 5829 5827 5826 5826 5824 5823 5821 5820 5819 5817 5816 5814 5813 5811 5809 5807 5806 5804 5803 5800 5798 5796 5794 5791 5789 5786
5838 5839 5840 5840 5840 5839 5838 5837 5836 5835 5834 5832 5829 5828 5826 5825 5822 5820 5819 5818 5817 5816 5814 5813 5811 5810 5808 5807 5805 5803 5801 5799 5797 5795 5793 5790 5788 5786 5783 5780 5778 5775 5772